Weather History for La Crosse, WI

Change the Weather History Date:

Saturday, November 10, 2012

  Actual Average Record
Temperature  
Mean Temperature 57 °F 39 °F  
Max Temperature 68 °F 47 °F 68 °F (2012)
Min Temperature 46 °F 31 °F 10 °F (1979)
Degree Days  
Heating Degree Days 8 26  
Month to date heating degree days 228 235  
Since 1 July heating degree days 912 863  
Cooling Degree Days 0 0  
Month to date cooling degree days 0 0  
Year to date cooling degree days 1083 782  
Growing Degree Days 6 (Base 50)    
Moisture  
Dew Point 47 °F    
Average Humidity 72    
Maximum Humidity 86    
Minimum Humidity 58    
Precipitation  
Precipitation 0.03 in 0.07 in 1.74 in (1880)
Month to date precipitation 0.24 0.67  
Year to date precipitation 23.70 30.36  
Snow  
Snow 0.00 in 0.10 in 2.90 in (2006)
Month to date snowfall T 0.6  
Since 1 July snowfall T 0.8  
Snow Depth 0.00 in    
Sea Level Pressure  
Sea Level Pressure 29.77 in    
Wind  
Wind Speed 12 mph (SSE)    
Max Wind Speed 21 mph    
Max Gust Speed 25 mph    
Visibility 7 miles    
Events Rain    
T = Trace of Precipitation, MM = Missing Value Source: NWS Daily Summary

Daily Weather History Graph

Daily Weather History Graph

Search for Another Location

Airport:

Trip Planner

Search our weather history database for the weather conditions in past years. The results will help you decide how hot, cold, wet, or windy it might be!

Date:

Astronomy

Nov. 10, 2012 Rise Set
Actual Time 6:53 AM CST 4:43 PM CST
Civil Twilight 6:23 AM CST 5:14 PM CST
Nautical Twilight 5:48 AM CST 5:48 PM CST
Astronomical Twilight 5:14 AM CST 6:22 PM CST
Moon 2:52 AM CST (11/10) 2:36 PM CST (11/10)
Length of Visible Light 10h 51m
Length of Day
9h 49m
Waning Crescent, 14% of the Moon is Illuminated
Nov 10
Waning Crescent
Nov 13
New
Nov 20
First Quarter
Nov 28
Full
Dec 6
Last Quarter

Hourly Weather History & Observations

Time (CST) Temp. Windchill Dew Point Humidity Pressure Visibility Wind Dir Wind Speed Gust Speed Precip Events Conditions
12:53 AM 46.9 °F - 42.1 °F 83% 29.95 in 4.0 mi East 10.4 mph - 0.00 in   Haze
1:20 AM 46.4 °F 45.2 °F 42.8 °F 87% 29.93 in 4.0 mi Variable 3.5 mph - N/A   Haze
1:53 AM 46.0 °F 42.5 °F 42.1 °F 86% 29.94 in 3.0 mi ESE 6.9 mph - 0.00 in Rain Light Rain
2:03 AM 46.4 °F 42.9 °F 42.8 °F 87% 29.93 in 2.5 mi Variable 6.9 mph - 0.02 in Rain Light Rain
2:13 AM 46.4 °F 42.4 °F 42.8 °F 87% 29.92 in 3.0 mi ESE 8.1 mph - 0.02 in Rain Light Rain
2:22 AM 46.4 °F 44.3 °F 42.8 °F 87% 29.92 in 4.0 mi Variable 4.6 mph - 0.02 in Rain Light Rain
2:53 AM 46.9 °F - 43.0 °F 86% 29.92 in 4.0 mi SE 6.9 mph - 0.03 in   Overcast
3:53 AM 46.9 °F - 43.0 °F 86% 29.90 in 4.0 mi ESE 10.4 mph - 0.00 in   Overcast
4:53 AM 46.9 °F - 43.0 °F 86% 29.88 in 4.0 mi ESE 9.2 mph - N/A   Overcast
5:53 AM 48.0 °F - 43.0 °F 83% 29.86 in 4.0 mi ESE 12.7 mph - N/A   Haze
6:53 AM 48.0 °F - 43.0 °F 83% 29.85 in 5.0 mi SE 10.4 mph - N/A   Haze
7:53 AM 48.9 °F - 44.1 °F 83% 29.83 in 4.0 mi SE 10.4 mph - N/A   Haze
8:53 AM 50.0 °F - 45.0 °F 83% 29.81 in 4.0 mi ESE 10.4 mph - N/A   Haze
9:53 AM 53.1 °F - 46.9 °F 80% 29.78 in 5.0 mi SE 6.9 mph - N/A   Haze
10:16 AM 53.6 °F - 46.4 °F 77% 29.76 in 5.0 mi SE 8.1 mph - N/A   Haze
10:53 AM 55.9 °F - 48.9 °F 77% 29.75 in 6.0 mi SE 10.4 mph - N/A   Haze
11:53 AM 62.1 °F - 51.1 °F 67% 29.69 in 10.0 mi SSE 13.8 mph - N/A   Clear
12:53 PM 64.9 °F - 53.1 °F 65% 29.66 in 10.0 mi South 17.3 mph - N/A   Clear
1:53 PM 66.0 °F - 52.0 °F 60% 29.65 in 10.0 mi South 16.1 mph - N/A   Partly Cloudy
2:53 PM 66.9 °F - 52.0 °F 59% 29.65 in 10.0 mi South 15.0 mph - N/A   Clear
3:53 PM 66.9 °F - 53.1 °F 61% 29.65 in 10.0 mi South 11.5 mph - N/A   Clear
4:53 PM 66.9 °F - 53.1 °F 61% 29.61 in 10.0 mi SSE 13.8 mph 24.2 mph N/A   Clear
5:53 PM 66.0 °F - 54.0 °F 65% 29.62 in 10.0 mi SSE 13.8 mph - N/A   Clear
6:53 PM 66.0 °F - 54.0 °F 65% 29.64 in 10.0 mi South 15.0 mph - N/A   Clear
7:53 PM 64.0 °F - 54.0 °F 70% 29.62 in 10.0 mi South 13.8 mph - N/A   Scattered Clouds
8:53 PM 64.0 °F - 53.1 °F 67% 29.62 in 10.0 mi South 16.1 mph - 0.00 in   Mostly Cloudy
10:53 PM 64.9 °F - 50.0 °F 58% 29.61 in 10.0 mi South 15.0 mph - N/A   Clear
11:53 PM 64.9 °F - 48.0 °F 54% 29.62 in 10.0 mi South 16.1 mph - N/A   Mostly Cloudy